Tracking 34719 objects as of 12-Jul-2026
HD Live streaming from Space Station
objects crossing your sky now

SL-3 R/B

Track SL-3 R/B now!
10-day predictions


NORAD ID: 6257
Int'l Code: 1972-085B
Perigee: 836.5 km
Apogee: 917.9 km
Inclination: 81.3 °
Period: 102.4 minutes
Semi major axis: 7248 km
RCS: 6.5788 m2 (large)
Launch date: October 26, 1972
Source: Commonwealth of Independent States (former USSR) (CIS)
Launch site: PLESETSK MISSILE AND SPACE COMPLEX (PKMTR)

Note: This is a ROCKET BODY
Your satellite tracking list
Your tracking list is empty




NASA's NSSDC Master Catalog

Two Line Element Set (TLE):
1  6257U 72085B   26192.61450734  .00000038  00000-0  14748-4 0  9991
2  6257  81.2572 199.8944 0056117 167.6557 192.6002 14.06889122754735
Source of the keplerian elements: AFSPC